Погода в Александровке 2-ой

Россия / Тамбовская область     51°48′10″N   41°47′08″E
В апреле 2022 года жителям России запретили посещать сайт meteo.paraplan.net по решению Генеральной прокуратуры. Аудитория сайта уменьшилась в 10 раз. Владельцы сайта не видят смысла в поддержке погодного сервера в таких условиях. Сайт будет закрыт в октябре.
темп.,
°C
ветер,
м/с
пор.,
м/с
влажн.,
%
обл.,
%
осадки,
мм/ч
давл.,
гПа
погр.,
м
25 сентября, вс
вс2500:00+8ююз410845 0.1 1008280
03:00+7ююз49905 0.1 1008224
06:00+7ююз51188100 0.0 1006427
09:00+8ююз61086100 0.3 10061209
12:00+8зюз6882100 0.4 10061000
15:00+9зюз5983100 0.6 1007925
18:00+8з61085100 0.1 10091075
21:00+8зюз71085100 0.2 1009978
26 сентября, пн
пн2600:00+8з71386100 0.3 10091224
03:00+8з8148067 0.3 10101075
06:00+8з61382100 0.0 1011774
09:00+10з71165100 0.0 1012962
12:00+11з71156100 0.0 10131571
15:00+12з7115063 0.0 10141774
18:00+12з4952100 0.0 1015434
21:00+11юз3562100 0.0 1015104
27 сентября, вт
вт2700:00+10юз2268100 0.0 101532
03:00+10ю1170100 0.1 101412
06:00+9вюв3590100 2.2 1013173
09:00+9вюв4894100 5.7 1012315
12:00+11юв3792100 2.3 1012307
15:00+15юз2586100 3.5 1011329
18:00+14ююв2287100 1.1 101125
21:00+13ююв3780100 1.1 1010148
28 сентября, ср
ср2800:00+12ююв3783100 0.0 1010143
03:00+12вюв41085100 0.0 1008205
06:00+13юв51189100 0.0 1006299
09:00+15юв51081100 0.0 1005327
12:00+17ююв71275100 0.4 1005727
15:00+17ю61274100 2.5 1003458
18:00+15юз238696 0.4 100455
21:00+15ююз378416 0.4 1005152
29 сентября, чт
чт2900:00+13зюз3694100 0.0 1006106
03:00+12зюз3594100 0.0 1007112
06:00+11з359471 0.0 1009115
09:00+14зсз46770 0.0 1011359
12:00+18зсз45605 0.0 1012966
15:00+19сз445541 0.0 10131254
18:00+14ссз34710 0.0 101551
21:00+12с348229 0.0 101767